Location: George Washington National Forest Helicopter Landing Site
(38.6463°N, 79.0851°W)
Time: 21:11:40
(UTC-04:00)

Tiros 1 despin weight - Pass Details

Date: 27 August 2019
Orbit: 594 x 642 km, 48.2° (Epoch: 20 September)

Event Time Altitude Azimuth Distance (km) Brightness Sun altitude
Rises 04:12:21 0° 303° (WNW) 2,862 - -26.6°
Reaches altitude 10° 04:14:40 10° 307° (NW) 1,964 - -26.2°
Exits shadow 04:18:31 55° 348° (NNW) 739 ? -25.6°
Maximum altitude 04:19:09 62° 28° (NNE) 692 ? -25.6°
Drops below altitude 10° 04:23:41 10° 110° (ESE) 1,987 ? -24.9°
Sets 04:26:02 0° 114° (ESE) 2,900 ? -24.5°
